Regional Weather Roundup
Issued by NWS

Home | Current Version | Previous Version | Text Only | Print | Product List | Glossary Off
Versions: 1 2 3 4 5 6 7 8 9 10 11 12 13 14 15 16 17 18 19 20 21 22 23 24 25 26 27 28 29 30 31 32 33 34 35 36 37 38 39 40 41 42 43 44 45 46 47 48 49 50

000
ASUS43 KIND 301859
RWRIN

WEATHER ROUNDUP FOR INDIANA
NATIONAL WEATHER SERVICE INDIANAPOLIS IN
300 PM EDT SAT MAY 30 2015

NOTE: "FAIR" INDICATES FEW OR NO CLOUDS BELOW 12,000 FEET WITH NO
SIGNIFICANT WEATHER AND/OR OBSTRUCTIONS TO VISIBILITY.

* - STATION DOES NOT REPORT WEATHER SUCH AS PRECIPITATION OR FOG.

+ - STATION NOT QUALITY CONTROLLED BY THE NATIONAL WEATHER SERVICE.
    USE DATA WITH CAUTION...ESPECIALLY DEWPOINT AND RELATIVE
    HUMIDITY OBSERVATIONS.

INZ001>003-010>013-019-020-302000-
NORTHWEST INDIANA

CITY           SKY/WX    TMP DP  RH WIND       PRES   REMARKS
GARY /AIRPORT/ LGT RAIN  52  52 100 N9G21     30.04R
MONTICELLO +   CLOUDY    78  71  79 NE3       29.94F
RENSSELAER +   LGT RAIN  73  68  83 CALM      29.95F

$$

LMZ046-743>745-302000-
SOUTHERN LAKE MICHIGAN

STATION/POSITION TIME  TEMP    WIND        PRES    WAVE
                       AIR SEA DIR/SP/G            HT
                 (UTC) (F)     (DEG/KT/KT) (MB)    (FT)
BURNS HARBOR     1800   49     350/ 13/ 16 1017.3R
MICHIGAN CITY    1800   52     350/  9/ 10   N/A
5NW MICH CITY    1800   48 57  340/ 16/ 19   N/A     2

$$

INZ004-005-014>016-021>024-302000-
NORTH CENTRAL INDIANA

CITY           SKY/WX    TMP DP  RH WIND       PRES   REMARKS
ELKHART        PTSUNNY   75  66  73 CALM      29.97F
GOSHEN         PTSUNNY   79  68  69 W7        29.95F
SOUTH BEND     CLOUDY    75  65  70 N5        29.97F
WARSAW +       MOSUNNY   79  66  65 SE3       29.94F

$$

INZ006>009-017-018-025>027-302000-
NORTHEAST INDIANA

CITY           SKY/WX    TMP DP  RH WIND       PRES   REMARKS
ANGOLA *+      PTSUNNY   81  75  83 W6        29.96F
FORT WAYNE     CLOUDY    77  68  73 W3        29.98F

$$

INZ028-029-035-036-043>045-051>053-302000-
WEST CENTRAL INDIANA

CITY           SKY/WX    TMP DP  RH WIND       PRES   REMARKS
CRAWFORDSVL +  CLOUDY    73  61  67 SE8G16    29.94S
GREENCASTLE +  MOSUNNY   77  70  78 S7        29.95F
LAFAYETTE      LGT RAIN  78  69  73 CALM      29.93S
TERRE HAUTE    MOSUNNY   82  67  60 SW18G33   29.92F

$$

INZ030>032-037>040-046>048-054>057-064-065-302000-
CENTRAL INDIANA

CITY           SKY/WX    TMP DP  RH WIND       PRES   REMARKS
ANDERSON       TSTM      70  64  83 W14G25    29.99S
COLUMBUS       MOSUNNY   82  63  51 S17G23    29.97F
GREENWOOD *+   PTSUNNY   79  68  69 SW8       29.96F
INDIANAPOLIS   CLOUDY    79  70  74 S9        29.93F
-EAGLE CREEK   CLOUDY    75  69  81 VRB6      29.95F
KOKOMO *+      PTSUNNY   70  64  83 SW8       29.99R THUNDER
MT COMFORT *+  PTSUNNY   75 N/A N/A W10       29.97F
SHELBYVILLE    PTSUNNY   85  66  53 S22       29.95F

$$

INZ033-034-041-042-049-050-058-059-302000-
EAST CENTRAL INDIANA

CITY           SKY/WX    TMP DP  RH WIND       PRES   REMARKS
MUNCIE         MOSUNNY   82  63  52 SW23G35   29.97F

$$

INZ060-061-067>069-081>083-085>088-302000-
SOUTHWEST INDIANA

CITY           SKY/WX    TMP DP  RH WIND       PRES   REMARKS
EVANSVILLE     MOSUNNY   82  66  58 S14       29.95F
HUNTINGBURG *+ CLOUDY    79  66  65 SW15      29.97S

$$

INZ062-063-066-070>080-084-089>092-302000-
SOUTH CENTRAL AND SOUTHEAST INDIANA

CITY           SKY/WX    TMP DP  RH WIND       PRES   REMARKS
BLOOMINGTON    MOSUNNY   83  69  62 S13       29.95F
MADISON *+     MOSUNNY   84  63  48 S8        30.01F
SEYMOUR +      MOSUNNY   86  66  51 SE15      29.96F

$$



USA.gov is the U.S. government's official web portal to all federal, state and local government web resources and services.